Probability
31 29 22 17 28 52 69 67 50 30 19 12 6 2 0 0 0 0 0 3 15 40 67 85 91 90 88 79 58 31 14 7 3 1 0 0 0 0 0 0 0 0 0
61 59 51 39 39 54 70 73 60 45 36 26 13 4 1 0 1 2 2 5 24 53 76 89 95 94 92 85 66 42 23 10 4 1 0 0 0 0 0 0 0 0 0
85 87 83 70 61 64 74 79 70 59 49 35 19 6 1 0 1 4 5 9 26 58 82 93 97 97 95 90 81 68 49 25 7 0 0 0 0 0 0 0 0 0 0
80 90 95 90 85 85 88 86 74 59 45 30 15 4 0 0 1 4 7 11 25 51 78 90 92 92 90 87 83 77 66 44 18 4 3 3 2 0 0 0 0 0 0
75 88 97 97 97 99 99 93 74 49 30 17 7 2 0 0 0 2 6 11 23 45 64 76 82 82 78 77 72 61 54 44 25 12 17 23 15 4 0 0 0 0 0
84 91 96 97 98 98 98 93 74 43 19 7 2 0 0 0 0 1 3 8 18 33 44 51 59 60 54 56 52 38 31 27 17 15 32 49 41 17 3 0 0 0 0
84 87 92 94 95 95 96 93 78 49 21 6 1 0 0 0 0 0 1 4 10 17 22 23 28 29 25 24 23 17 14 10 8 12 28 49 51 28 7 0 0 0 0
65 75 84 88 88 89 90 89 78 55 26 7 2 1 0 0 0 0 0 1 4 7 7 5 6 7 5 4 3 3 3 3 4 7 13 23 30 24 9 1 0 0 0
43 57 72 76 75 75 76 75 69 52 27 11 6 3 1 0 0 0 0 0 1 1 1 0 1 1 0 0 0 0 0 0 1 2 3 4 8 9 6 2 0 0 0
20 31 45 50 50 52 51 48 45 38 25 14 8 3 1 0 0 0 0 0 0 0 0 1 0 0 0 0 0 0 0 0 0 0 0 0 0 1 2 1 0 0 0
4 9 17 21 22 24 24 21 19 17 14 10 6 2 0 0 0 0 0 0 0 0 0 0 0 0 0 0 0 0 0 0 0 0 0 0 0 0 0 0 0 0 0
0 1 3 5 6 7 8 8 5 3 4 3 2 0 0 0 0 0 0 0 0 0 0 0 0 0 0 0 0 0 0 0 0 0 0 0 0 0 0 0 0 0 0
0 0 0 1 2 2 4 4 3 1 0 0 0 0 0 0 0 0 0 0 0 0 0 0 0 0 0 0 0 0 0 0 0 0 0 0 0 0 0 0 0 0 0
0 0 0 0 0 0 1 2 2 1 0 0 0 0 0 0 0 0 0 0 0 0 0 0 0 0 0 0 0 0 0 0 0 0 0 0 0 0 0 0 0 0 0
0 0 0 0 0 0 0 1 1 0 0 0 0 0 0 0 0 0 0 0 0 0 0 0 0 0 0 0 0 0 0 0 0 0 0 0 0 0 0 0 0 0 0
0 0 0 0 0 0 0 0 0 0 0 0 0 0 0 0 0 0 0 0 0 0 0 0 0 0 0 0 0 0 0 0 0 0 0 0 0 0 0 0 0 0 0
0 0 0 0 0 0 0 0 0 0 0 0 0 0 0 0 0 0 0 0 0 0 0 0 0 0 0 0 0 0 0 0 0 0 0 0 0 0 0 0 0 0 0
0 0 0 0 0 0 0 0 0 0 0 0 0 0 0 0 0 0 0 0 0 0 0 0 0 0 0 0 0 0 0 0 0 0 0 0 0 0 0 0 0 0 0
0 0 0 0 0 0 0 0 0 0 0 0 0 0 0 0 0 0 0 0 0 0 0 0 0 0 0 0 0 0 0 0 0 0 0 0 0 0 0 0 0 0 0
0 0 0 0 0 0 0 0 0 0 0 0 0 0 0 0 0 0 0 0 0 0 0 0 0 0 0 0 0 0 0 0 0 0 0 0 0 0 0 0 0 0 0
0 0 0 0 0 0 0 0 0 0 0 0 0 0 0 0 0 0 0 0 0 0 0 0 0 0 0 0 0 0 0 0 0 0 0 0 0 0 0 0 0 0 0
0 0 0 0 0 0 0 0 0 0 0 0 0 0 0 0 0 0 0 0 0 0 0 0 0 0 0 0 0 0 0 0 0 0 0 0 0 0 0 0 0 0 0
0 0 0 0 0 0 0 0 0 0 0 0 0 0 0 0 0 0 0 0 0 0 0 0 0 0 0 0 0 0 0 0 0 0 0 0 0 0 0 0 0 0 0
0 0 0 0 0 0 0 0 0 0 0 0 0 0 0 0 0 0 0 0 0 0 0 0 0 0 0 0 0 0 0 0 0 0 0 0 0 0 0 0 0 0 0
0 0 0 0 0 0 0 0 0 0 0 0 0 0 0 0 0 0 0 0 0 0 0 0 0 0 0 0 0 0 0 0 0 0 0 0 0 0 0 0 0 0 0
0 0 0 0 0 0 0 0 0 0 0 0 0 0 0 0 0 0 0 0 0 0 0 0 0 0 0 0 0 0 0 0 0 0 0 0 0 0 0 0 0 0 0
Wind_Speed
7 7 6 6 7 6 7 7 7 9 10 10 9 10 10 8 8 7 6 16 18 17 18 19 20 21 20 20 19 20 19 18 17 17 17 18 18 18 18 19 19 18 19
8 8 8 7 7 7 8 7 8 9 9 7 8 9 10 8 8 8 7 10 17 18 19 21 21 21 20 20 20 20 20 19 18 18 18 18 18 18 19 19 18 18 18
10 9 8 7 7 6 7 5 6 6 5 5 5 6 5 6 7 9 9 8 8 15 20 21 21 20 20 20 21 21 20 19 18 18 19 19 19 19 19 19 19 18 17
11 9 7 7 6 5 5 4 4 3 4 4 4 4 4 5 8 8 8 8 8 8 13 20 20 20 21 22 22 21 21 20 19 19 19 20 19 19 19 20 19 18 17
8 8 8 8 7 5 5 4 4 3 4 4 4 4 5 6 7 8 8 9 9 9 8 12 17 18 21 23 22 22 21 20 21 21 21 21 20 20 19 19 18 17 17
7 6 7 8 7 6 6 5 5 4 4 4 4 5 5 7 7 8 9 9 8 10 10 10 8 11 19 21 20 20 21 21 21 20 21 21 21 21 19 17 17 17 18
6 6 6 7 7 7 9 8 5 5 5 3 2 4 5 8 11 10 9 8 9 9 9 10 6 6 7 14 17 18 20 20 19 18 19 21 22 21 20 18 17 18 19
7 5 6 6 6 6 6 6 6 4 4 5 4 2 3 5 6 8 8 8 8 7 9 9 6 6 5 4 6 12 14 17 19 19 19 20 22 22 21 20 19 20 20
7 7 7 6 6 6 6 8 8 7 6 5 6 5 4 5 4 3 3 4 4 4 4 4 5 5 4 3 3 7 13 14 16 17 18 19 20 21 20 20 21 21 21
8 8 7 7 7 6 7 7 8 6 6 5 4 5 4 3 2 4 3 2 3 2 3 2 3 3 2 1 1 4 8 10 11 13 14 17 19 18 19 20 22 21 21
8 8 7 7 7 7 8 8 7 7 6 6 5 4 4 4 5 4 4 4 3 3 2 2 1 1 1 2 1 1 2 3 5 8 9 11 14 16 18 21 22 21 22
8 9 8 8 8 7 8 8 7 7 7 6 5 5 4 4 4 4 5 3 2 3 3 2 2 1 1 1 1 1 2 3 5 6 6 6 7 10 12 17 20 21 22
9 10 9 8 7 7 7 7 6 6 6 6 6 4 4 4 3 3 3 2 0 2 4 4 4 3 2 1 0 1 1 2 4 4 4 4 4 4 5 5 5 8 13
9 10 10 8 7 7 6 5 5 5 5 7 7 5 4 4 3 3 3 2 1 2 3 4 3 4 3 1 1 0 1 3 4 4 4 4 5 5 4 4 3 4 5
8 9 8 6 4 3 4 4 3 4 5 6 6 6 4 2 2 2 2 2 3 2 1 2 3 3 3 2 2 2 2 4 5 6 5 4 4 5 5 4 4 5 6
8 9 8 5 2 1 1 2 2 3 3 3 3 4 3 2 2 1 2 2 3 3 2 1 2 2 3 4 5 5 5 7 7 8 7 3 3 5 6 7 7 7 8
7 8 8 6 4 3 1 0 1 1 3 2 2 3 4 4 3 2 3 3 2 3 3 2 3 4 5 5 4 4 5 5 6 11 8 4 4 5 6 7 8 9 10
6 6 6 6 5 4 4 4 3 3 4 4 4 5 6 6 5 4 4 4 3 2 4 4 4 5 5 4 4 4 4 5 5 11 9 7 5 4 5 6 8 9 9
6 6 6 6 6 5 6 6 6 6 6 6 7 7 6 7 7 5 6 5 4 5 5 5 3 2 2 3 3 4 4 4 5 8 10 9 8 7 7 8 8 8 9
5 6 5 5 5 5 5 6 8 7 7 7 7 7 6 6 6 6 6 6 7 7 6 5 3 3 3 3 3 4 4 3 3 4 6 5 5 6 7 8 9 10 10
4 4 3 4 5 4 4 7 7 7 8 9 9 9 8 9 10 7 6 6 7 6 5 4 3 4 4 4 4 3 3 3 3 3 3 3 3 3 3 6 9 12 12
2 0 3 4 4 3 5 9 7 7 8 9 8 7 7 8 10 13 13 11 8 6 5 4 3 3 3 3 3 3 3 4 4 4 3 4 2 3 3 3 7 11 13
2 3 3 4 4 4 7 10 10 7 7 7 7 7 7 8 9 9 11 12 11 10 6 4 3 2 2 2 3 4 4 2 1 3 2 3 3 3 4 3 7 9 12
4 4 3 4 5 6 11 12 12 9 8 7 7 7 8 7 7 8 8 8 7 7 6 3 3 2 2 0 1 1 0 1 2 3 3 2 4 3 4 3 6 9 11
4 4 4 5 6 5 11 12 10 7 7 6 5 6 8 8 11 13 10 8 9 7 9 13 11 10 9 8 5 5 5 4 3 3 3 3 3 4 4 4 6 11 12
5 6 5 4 6 5 9 12 11 6 6 5 5 6 9 10 12 12 9 9 9 6 6 9 9 9 7 7 9 5 3 3 2 3 4 3 4 4 4 4 4 6 8
Wind_Direction
228 229 232 228 224 220 221 224 229 237 240 240 237 241 248 241 232 233 239 245 241 232 225 217 214 217 222 221 221 223 226 228 228 228 229 229 230 230 228 225 222 217 213
232 232 231 226 220 217 218 219 224 231 236 235 233 234 241 242 238 234 236 246 240 229 227 226 225 223 223 223 223 225 226 228 228 227 228 229 229 228 227 226 224 221 218
234 234 233 230 224 213 207 208 218 221 225 223 228 234 242 251 249 237 234 236 238 234 231 231 231 229 226 226 227 227 227 229 229 228 228 230 228 225 222 222 222 220 219
237 236 233 235 227 208 198 196 193 197 209 210 221 240 251 262 259 249 240 237 237 239 237 234 234 232 229 229 230 229 227 227 228 228 228 228 227 225 222 220 220 219 218
242 233 235 236 224 213 209 204 196 190 208 218 227 241 242 246 253 255 248 243 238 236 236 239 237 234 234 235 235 234 230 227 227 228 227 227 227 225 224 223 220 218 218
251 237 238 235 221 219 223 215 209 199 206 210 232 248 243 243 246 245 245 245 243 240 239 240 236 237 238 240 240 239 237 233 231 230 228 226 226 225 225 224 220 218 217
256 241 241 238 225 223 223 217 209 210 217 181 203 265 264 247 245 247 244 241 243 242 239 239 227 227 240 243 244 245 244 241 236 231 230 226 224 224 222 219 218 217 216
267 250 241 241 234 231 227 217 207 207 210 182 191 214 284 299 259 247 247 246 248 245 237 232 223 221 223 226 235 242 244 242 237 232 233 229 223 221 219 216 214 215 215
278 265 249 243 238 226 229 226 216 211 220 213 200 187 201 240 294 294 261 257 270 256 241 223 208 211 222 224 236 248 250 248 245 239 236 236 227 220 216 215 216 216 217
280 272 261 249 240 228 227 228 222 216 212 222 211 211 210 194 224 301 309 303 296 273 263 237 210 210 203 131 265 273 266 263 261 255 242 239 235 224 215 215 219 219 218
289 279 269 258 245 230 223 222 220 214 208 208 201 191 213 226 220 228 273 300 316 284 262 262 259 248 148 150 164 44 351 307 292 285 269 252 245 237 224 219 222 224 223
298 287 276 261 245 231 223 221 221 217 212 209 200 187 182 194 204 209 226 248 287 297 327 352 3 18 79 120 149 113 41 12 1 351 334 311 285 274 254 236 231 231 231
298 287 277 262 248 234 225 214 207 211 205 199 195 191 192 204 197 189 178 185 329 336 353 3 13 23 34 47 360 149 64 11 9 7 -0 357 349 346 341 324 290 261 247
298 291 279 262 248 234 221 209 207 210 208 210 209 199 196 213 199 172 155 143 107 22 24 5 359 21 15 3 331 106 327 328 337 335 333 342 348 354 4 359 336 307 291
316 317 308 284 258 231 213 196 205 212 211 215 210 202 196 189 168 157 146 138 132 110 57 345 2 356 4 11 24 29 347 319 315 306 300 313 337 344 349 342 317 291 276
331 340 344 339 325 275 213 197 206 210 191 188 178 170 156 128 126 141 138 127 132 135 119 319 355 347 360 9 16 17 8 360 344 328 306 304 340 351 348 339 327 311 293
334 347 351 357 354 345 337 170 199 171 139 107 91 123 123 117 120 129 121 123 125 119 117 33 14 10 25 17 11 20 26 23 2 360 352 10 26 14 355 338 323 310 299
328 342 352 359 9 27 40 56 64 73 86 94 101 100 105 109 98 90 87 89 93 104 112 92 40 20 16 8 17 29 27 25 9 14 31 53 60 43 12 346 330 316 303
325 342 354 5 18 35 47 58 77 86 91 95 100 102 104 102 91 85 83 82 80 80 91 99 68 9 5 4 3 15 34 22 20 31 43 54 52 43 30 12 358 347 329
320 336 349 8 22 34 59 78 94 95 93 89 87 86 84 90 95 92 84 82 88 88 85 88 72 22 11 344 18 15 11 4 13 23 29 25 20 15 12 8 2 355 342
303 328 23 37 34 37 75 103 107 103 97 88 78 71 68 76 83 84 86 82 88 91 86 79 62 36 16 12 1 349 4 348 346 3 354 343 338 335 337 351 357 350 342
287 78 112 84 53 48 98 113 117 106 102 94 86 74 66 62 77 78 78 76 84 95 97 88 73 58 21 3 351 6 13 24 355 339 351 318 324 317 311 329 347 348 345
158 137 134 117 90 73 109 121 116 112 106 95 88 81 73 63 71 78 72 66 61 63 81 125 98 70 46 351 10 27 27 31 323 308 347 313 321 314 302 306 334 340 341
157 151 155 130 95 75 98 110 106 98 94 93 98 100 92 70 71 83 71 56 42 33 36 65 111 127 147 168 112 116 139 16 316 322 26 343 316 308 305 315 332 338 336
162 162 162 141 111 92 101 110 109 100 96 87 86 90 95 85 79 81 75 63 46 25 39 60 71 79 81 72 69 57 39 46 8 319 352 11 316 313 317 326 342 347 339
167 162 162 155 135 122 113 118 120 116 108 95 74 70 82 91 83 81 80 74 60 30 38 50 47 39 39 42 50 64 79 80 53 339 325 1 335 345 338 329 348 352 348